Date,TemperatureHighF,TemperatureAvgF,TemperatureLowF,DewpointHighF,DewpointAvgF,DewpointLowF,HumidityHigh,HumidityAvg,HumidityLow,PressureMaxIn,PressureMinIn,WindSpeedMaxMPH,WindSpeedAvgMPH,GustSpeedMaxMPH,PrecipitationSumIn
2013-1-1,34,21,11,12,3,-4,68,47,31,0.00,40.00,8,1,9,0.00
2013-1-2,36,23,14,7,1,-4,50,39,27,0.00,40.00,10,2,13,0.00
2013-1-3,40,22,9,8,0,-6,51,38,22,0.00,40.00,8,2,8,0.00
2013-1-4,49,28,13,15,4,-5,49,37,21,0.00,40.00,6,2,7,0.00
2013-1-5,43,26,15,13,6,1,54,43,28,0.00,40.00,9,2,13,0.00
2013-1-6,48,27,10,12,5,-2,58,42,22,0.00,40.00,4,1,6,0.00
2013-1-7,54,36,23,17,8,2,52,31,20,0.00,40.00,6,2,6,0.00
2013-1-8,54,43,27,17,12,6,53,29,22,0.00,40.00,14,5,16,0.00
2013-1-9,60,36,21,21,12,7,57,39,19,0.00,40.00,8,2,10,0.00
2013-1-10,42,30,20,15,10,3,54,42,31,0.00,40.00,11,1,13,0.00
2013-1-11,42,29,13,18,10,4,71,47,24,0.00,40.00,13,5,16,0.00
2013-1-12,22,10,4,6,-3,-11,65,54,43,0.00,40.00,9,2,10,0.00
2013-1-13,19,9,3,1,-9,-14,55,43,37,0.00,40.00,6,1,9,0.00
2013-1-14,19,8,2,2,-11,-18,54,41,38,0.00,40.00,6,1,6,0.00
2013-1-15,36,20,0,7,-4,-20,54,35,27,0.00,40.00,6,1,8,0.00
2013-1-16,55,36,21,21,12,3,49,37,23,0.00,40.00,8,2,8,0.00
2013-1-17,54,33,19,21,11,4,61,41,23,0.00,40.00,6,1,8,0.00
2013-1-18,60,40,21,18,9,2,44,30,19,0.00,40.00,10,3,10,0.00
2013-1-19,61,46,32,19,9,0,31,22,19,0.00,40.00,10,3,12,0.00
2013-1-20,53,34,20,16,7,1,52,34,21,0.00,40.00,13,2,18,0.00
2013-1-21,58,37,15,18,10,3,64,36,19,0.00,40.00,11,4,13,0.00
2013-1-22,65,49,33,20,10,0,25,21,18,0.00,40.00,17,5,20,0.00
2013-1-23,58,41,28,16,5,-5,24,22,19,0.00,40.00,7,2,8,0.00
2013-1-24,68,52,28,22,15,2,34,23,17,0.00,40.00,22,9,26,0.00
2013-1-25,61,42,29,25,18,13,55,39,24,0.00,40.00,7,1,8,0.00
2013-1-26,56,42,29,34,22,15,68,46,27,0.00,40.00,6,2,8,0.00
2013-1-27,59,43,29,43,26,16,80,55,28,0.00,40.00,6,2,8,0.00
2013-1-28,57,35,25,28,19,10,83,55,26,0.00,40.00,11,2,17,0.00
2013-1-29,37,27,18,21,11,2,76,52,30,0.00,40.00,9,2,10,0.00
2013-1-30,45,28,10,14,6,-3,58,40,27,0.00,40.00,16,4,23,0.00
2013-1-31,49,37,23,18,13,7,58,38,26,0.00,40.00,17,4,26,0.00
2013-2-1,50,35,20,28,15,9,73,46,26,0.00,40.00,16,5,22,0.00
2013-2-2,61,39,21,21,12,6,55,35,19,0.00,40.00,11,3,11,0.00
2013-2-3,54,37,22,19,10,2,54,34,20,0.00,40.00,10,2,12,0.00
2013-2-4,58,41,24,16,8,-1,39,26,19,0.00,40.00,17,5,23,0.00
2013-2-5,60,45,32,20,12,6,35,27,19,0.00,40.00,7,2,9,0.00
2013-2-6,56,41,29,27,18,10,69,40,25,0.00,40.00,11,3,13,0.00
2013-2-7,51,36,23,32,18,7,79,51,24,0.00,40.00,8,2,10,0.00
2013-2-8,53,33,19,16,10,5,57,40,21,0.00,40.00,8,1,8,0.00
2013-2-9,38,32,24,26,19,10,76,60,39,0.00,40.00,9,4,10,0.00
2013-2-10,40,28,21,18,10,4,73,49,29,0.00,40.00,12,3,12,0.00
2013-2-11,34,24,16,11,7,3,61,49,35,0.00,40.00,8,2,10,0.00
2013-2-12,47,27,12,18,3,-3,63,38,20,0.00,40.00,6,1,7,0.00
2013-2-13,51,35,20,16,7,-1,43,31,21,0.00,40.00,19,5,22,0.00
2013-2-14,37,29,23,19,12,6,68,50,29,0.00,40.00,13,3,13,0.00
2013-2-15,48,29,15,20,10,3,66,46,25,0.00,40.00,9,3,14,0.00
2013-2-16,60,46,24,18,12,4,49,25,19,0.00,40.00,15,7,21,0.00
2013-2-17,69,45,28,22,10,-1,34,24,17,0.00,40.00,14,4,17,0.00
2013-2-18,47,33,23,18,7,-2,56,36,22,0.00,40.00,15,3,17,0.00
2013-2-19,44,30,17,13,5,-3,45,35,25,0.00,40.00,5,1,6,0.00
2013-2-20,40,28,20,25,13,6,81,57,32,0.00,40.00,9,3,9,0.00
2013-2-21,36,24,15,16,12,9,80,63,38,0.00,40.00,8,2,10,0.00
2013-2-22,40,26,15,18,9,1,73,51,32,0.00,40.00,11,2,13,0.00
2013-2-23,54,33,19,23,11,-2,78,41,23,0.00,40.00,7,3,9,0.00
2013-2-24,30,29,28,25,24,23,86,82,78,0.00,40.00,5,2,6,0.00
2013-4-28,85,76,62,31,27,21,25,16,14,0.00,40.00,11,4,13,0.00
2013-4-29,85,69,49,34,26,18,41,21,13,0.00,40.00,15,4,17,0.00
2013-4-30,63,53,38,34,28,19,79,39,24,0.00,40.00,12,4,13,0.00
2013-5-1,38,32,25,34,25,18,88,76,59,0.00,40.00,8,1,10,0.00
2013-5-2,54,38,21,24,16,10,78,45,24,0.00,40.00,6,1,6,0.00
2013-5-3,66,50,26,30,20,15,71,35,20,0.00,40.00,8,2,11,0.00
2013-5-4,65,50,35,28,22,15,57,34,23,0.00,40.00,9,2,11,0.00
2013-5-5,64,50,36,29,21,14,49,34,24,0.00,40.00,7,2,9,0.00
2013-5-6,72,55,38,31,27,22,60,35,22,0.00,40.00,7,2,9,0.00
2013-5-7,76,57,43,43,32,28,69,42,20,0.00,40.00,8,2,12,0.00
2013-5-8,66,50,42,46,38,30,83,65,27,0.00,40.00,11,3,11,0.00
2013-5-9,62,52,43,45,38,30,83,61,34,0.00,40.00,11,2,11,0.00
2013-5-10,68,55,37,52,31,26,83,44,23,0.00,40.00,11,2,11,0.00
2013-5-11,75,60,42,37,31,27,61,35,22,0.00,40.00,11,2,13,0.00
2013-5-12,82,68,48,37,31,26,54,28,17,0.00,40.00,8,2,11,0.00
2013-5-13,90,74,55,41,32,26,35,23,15,0.00,40.00,10,2,11,0.00
2013-5-14,95,72,55,41,32,27,38,24,14,0.00,40.00,15,3,26,0.00
2013-5-15,86,66,53,48,37,28,63,37,16,0.00,40.00,17,2,29,0.00
2013-5-16,86,70,51,48,38,29,71,37,16,0.00,40.00,8,2,11,0.00
2013-5-17,92,73,50,46,34,19,63,29,12,0.00,40.00,10,2,15,0.00
2013-5-18,82,66,51,36,27,17,35,23,17,0.00,40.00,12,2,15,0.00
2013-5-19,79,62,49,34,28,22,47,29,16,0.00,40.00,12,2,13,0.00
2013-5-20,72,57,49,50,35,28,73,45,24,0.00,40.00,11,2,12,0.00
2013-5-21,74,61,43,45,30,22,73,36,18,0.00,40.00,8,2,10,0.00
2013-5-22,74,56,44,41,30,25,63,40,22,0.00,40.00,4,0,6,0.00
2013-5-23,77,65,49,46,39,34,81,41,23,0.00,40.00,9,2,9,0.00
2013-5-24,87,69,47,54,38,27,80,39,16,0.00,40.00,8,2,11,0.00
2013-5-25,90,75,53,50,36,28,67,30,12,0.00,40.00,8,2,11,0.00
2013-5-26,89,71,54,39,30,24,39,23,13,0.00,40.00,11,2,13,0.00
2013-5-27,90,71,50,39,28,21,36,21,12,0.00,40.00,10,2,14,0.00
2013-5-28,86,69,49,37,32,23,53,28,15,0.00,40.00,11,2,15,0.00
2013-5-29,68,58,49,54,37,23,81,49,23,0.00,40.00,13,2,15,0.00
2013-5-30,72,63,53,31,25,21,36,24,19,0.00,40.00,17,8,23,0.00
2013-5-31,75,65,52,26,22,14,26,20,15,0.00,40.00,16,6,21,0.00
2013-6-1,71,59,44,34,28,16,55,33,23,0.00,40.00,9,2,11,0.00
2013-6-2,85,67,42,37,30,21,58,28,13,0.00,40.00,6,1,6,0.00
2013-6-3,97,76,50,41,30,20,40,21,11,0.00,40.00,12,3,18,0.00
2013-6-4,77,63,51,48,38,18,78,42,18,0.00,40.00,9,1,13,0.00
2013-6-5,64,52,48,45,41,37,78,65,41,0.00,40.00,6,1,6,0.00
2013-6-24,95,82,58,46,36,24,57,21,12,0.00,40.00,9,3,15,0.00
2013-6-25,97,80,60,39,32,22,35,18,13,0.00,40.00,12,3,13,0.00
2013-6-26,101,83,60,43,37,32,37,21,12,0.00,40.00,8,1,8,0.00
2013-6-27,99,84,62,46,36,29,39,19,13,0.00,40.00,8,2,11,0.00
2013-6-28,94,78,61,55,42,34,68,30,17,0.00,40.00,15,3,15,0.00
2013-6-29,84,74,60,59,47,41,73,40,24,0.00,40.00,9,2,9,0.00
2013-6-30,81,70,63,54,48,43,64,46,31,0.00,40.00,7,2,10,0.00
2013-7-1,86,71,58,55,45,36,70,42,23,0.00,40.00,8,2,10,0.00
2013-7-2,85,73,54,61,43,31,84,41,19,0.00,40.00,8,2,11,0.00
2013-7-3,91,80,55,52,39,34,69,25,15,0.00,40.00,8,1,11,0.00
2013-7-4,94,78,59,50,39,34,54,27,14,0.00,40.00,11,2,16,0.00
2013-7-5,96,76,63,48,42,37,44,32,16,0.00,40.00,9,2,13,0.00
2013-7-6,96,79,66,54,43,34,49,30,14,0.00,40.00,13,3,15,0.00
2013-7-7,92,77,62,59,44,37,70,34,18,0.00,40.00,8,2,11,0.00
2013-7-8,100,82,64,50,41,34,51,26,13,0.00,40.00,15,2,15,0.00
2013-7-9,99,81,64,52,40,34,46,25,13,0.00,40.00,8,2,11,0.00
2013-7-10,92,78,61,52,42,34,55,30,17,0.00,40.00,7,2,12,0.00
2013-7-11,102,82,61,55,44,37,68,31,12,0.00,40.00,13,2,17,0.00
2013-7-12,96,78,64,57,48,37,68,39,16,0.00,40.00,11,2,15,0.00
2013-7-13,94,74,65,61,53,41,79,54,17,0.00,40.00,10,2,13,0.00
2013-7-14,80,67,60,64,55,48,85,67,34,0.00,40.00,8,2,11,0.00
2013-12-23,30,24,21,20,17,14,74,73,68,24.98,24.95,4,1,6,0.00
2013-12-24,36,30,26,11,6,2,41,35,32,24.98,24.95,5,2,6,0.00
2013-12-25,33,26,20,12,7,0,54,45,25,25.07,24.95,6,1,6,0.00
2013-12-26,56,48,39,15,11,5,24,21,20,25.01,24.92,6,2,7,0.00
2013-12-27,54,45,37,14,12,7,32,26,20,24.98,24.89,3,0,3,0.00
2013-12-28,36,36,35,18,18,17,48,48,47,24.83,24.83,3,2,7,0.00
2013-12-29,39,33,19,20,10,4,69,39,26,24.95,24.66,15,5,17,0.00
2013-12-30,50,39,32,15,9,5,32,28,21,24.92,24.72,15,6,24,0.00
2013-12-31,57,45,34,21,13,6,31,27,22,24.83,24.69,19,6,20,0.00
2014-1-1,44,34,24,27,18,10,72,54,29,25.01,24.66,11,3,15,0.00
2014-1-2,46,29,18,26,16,10,74,59,28,24.98,24.75,8,2,11,0.00